{"data":{"norad_id":85100,"intl_designator":"","name":"UNKNOWN","alt_names":[],"object_type":"UNKNOWN","status":"UNKNOWN","operator":null,"country":null,"launch_date":null,"launch_site_code":null,"launch_vehicle":null,"mission":null,"orbit_class":"UNKNOWN","rcs_meters":null,"size_class":null,"mass_kg":null,"dimensions":null,"purposes":[],"wikipedia_slug":null,"has_3d_model":false,"image_url":null,"decayed_at":null,"tle_current":{"epoch":"2026-05-19T16:15:11.960064Z","epoch_age_seconds":530885,"freshness":"STALE","line1":"1 85100U          26139.67722176  .00000176  00000+0  63024-4 0  9995","line2":"2 85100  74.0448 290.7622 0011717 122.0910 253.1451 14.40842941656097","mean_motion":14.40842941,"eccentricity":0.0011717,"inclination_deg":74.0448,"raan_deg":290.7622,"arg_perigee_deg":122.091,"mean_anomaly_deg":253.1451,"bstar":6.3024e-5,"rev_number":65609,"period_min":99.941496676979,"perigee_km":747.35600421658,"apogee_km":764.07347238011,"semimajor_km":7133.8517382983,"source":"CELESTRAK","updated_at":"2026-05-25T13:38:11.430464Z"}}}